Location: Bessat
(45.8735°N, 1.9924°E)
Time: 14:04:30
(UTC+00:00)

Cosmos 158 Rocket - Pass Details

Date: 11 May 2021
Orbit: 699 x 793 km, 74.0° (Epoch: 19 June)

Event Time Altitude Azimuth Distance (km) Brightness Sun altitude
Rises 21:38:06 0° 337° (NNW) 3,093 8.7 -19.5°
Reaches altitude 10° 21:40:25 10° 337° (NNW) 2,172 7.5 -19.8°
Maximum altitude 21:45:18 82° 250° (WSW) 716 3.8 -20.2°
Enters shadow 21:46:50 45° 168° (SSE) 966 4.1 -20.3°
